User: anonymous   Login
Location: Unspecified
(0.0000°N, 0.0000°E)
Time: 04:03:42
(UTC+00:00)
Language:

SCATHA - Orbit

View from above orbital plane
View from above orbital plane
View from above satellite
View from above satellite

Ground track
Ground track

The orbit data is extracted from the following two-line orbital elements,

1 11256U 79007A   18292.11241782 -.00000200 +00000-0 +00000-0 0  9999
2 11256 016.1418 319.9467 1776923 041.6289 124.9738 01.01530759114047
Epoch (UTC): 19 October 2018 02:41:52
Eccentricity: 0.1776923
inclination: 16.1418°
perigee height: 28007 km
apogee height: 42867 km
right ascension of ascending node: 319.9467°
argument of perigee: 41.6289°
revolutions per day: 1.01530759
mean anomaly at epoch: 124.9738°
orbit number at epoch: 11404

The dashed part of the orbit path shows where the satellite is in the earth's shadow,  

DLR